Weather History for KSUS - June, 2014

Change the Weather History Date:

Tuesday, June 17, 2014

  Actual Average Record
Temperature  
Mean Temperature 81 °F -  
Max Temperature 90 °F 81 °F 93 °F (2007)
Min Temperature 72 °F 60 °F 48 °F (1999)
Cooling Degree Days 16    
Growing Degree Days 31 (Base 50)    
Moisture  
Dew Point 70 °F    
Average Humidity 67    
Maximum Humidity 91    
Minimum Humidity 54    
Precipitation  
Precipitation 0.00 in - - ()
Sea Level Pressure  
Sea Level Pressure 29.91 in    
Wind  
Wind Speed 8 mph (SSW)    
Max Wind Speed 14 mph    
Max Gust Speed 22 mph    
Visibility 10 miles    
Events      
Averages and records for this station are not official NWS values.
T = Trace of Precipitation, MM = Missing Value Source: NWS Daily Summary

Daily Weather History Graph

Daily Weather History Graph

Search for Another Location

Airport or City:

Trip Planner

Search our weather history database for the weather conditions in past years. The results will help you decide how hot, cold, wet, or windy it might be!

Date:

Astronomy

Jun. 17, 2014 Rise Set
Actual Time 5:37 AM CDT 8:29 PM CDT
Civil Twilight 5:05 AM CDT 9:01 PM CDT
Nautical Twilight 4:25 AM CDT 9:41 PM CDT
Astronomical Twilight 3:39 AM CDT 10:27 PM CDT
Moon No Moon Rise 10:49 AM CDT (6/17)
Length of Visible Light 15h 55m
Length of Day
14h 52m
Waning Gibbous, 73% of the Moon is Illuminated
Jun 17
Waning Gibbous
Jun 19
Last Quarter
Jun 27
New
Jul 5
First Quarter
Jul 12
Full

Hourly Weather History & Observations

Time (CDT) Temp. Heat Index Dew Point Humidity Pressure Visibility Wind Dir Wind Speed Gust Speed Precip Events Conditions
12:54 AM 79.0 °F - 69.1 °F 72% 29.87 in 10.0 mi South 8.1 mph - N/A   Clear
1:54 AM 78.1 °F - 69.1 °F 74% 29.86 in 10.0 mi SSW 9.2 mph 16.1 mph N/A   Clear
2:54 AM 79.0 °F - 69.1 °F 72% 29.87 in 10.0 mi South 10.4 mph - N/A   Clear
3:54 AM 77.0 °F - 69.1 °F 76% 29.89 in 10.0 mi SSW 5.8 mph - N/A   Clear
4:54 AM 75.9 °F - 69.1 °F 79% 29.91 in 10.0 mi SSW 3.5 mph - N/A   Clear
5:54 AM 72.0 °F - 69.1 °F 91% 29.94 in 10.0 mi SSE 3.5 mph - N/A   Scattered Clouds
6:54 AM 75.9 °F - 71.1 °F 85% 29.96 in 10.0 mi Calm Calm - N/A   Scattered Clouds
7:54 AM 78.1 °F - 71.1 °F 79% 29.97 in 10.0 mi South 3.5 mph - N/A   Mostly Cloudy
8:54 AM 82.0 °F 86.3 °F 71.1 °F 69% 29.97 in 10.0 mi SSW 9.2 mph - N/A   Partly Cloudy
9:54 AM 84.0 °F 89.0 °F 71.1 °F 65% 29.96 in 10.0 mi SW 13.8 mph 19.6 mph N/A   Partly Cloudy
10:54 AM 86.0 °F 91.5 °F 71.1 °F 61% 29.94 in 10.0 mi South 12.7 mph 20.7 mph N/A   Partly Cloudy
11:54 AM 88.0 °F 93.8 °F 71.1 °F 57% 29.95 in 10.0 mi South 12.7 mph 18.4 mph N/A   Clear
12:54 PM 89.1 °F 95.0 °F 71.1 °F 55% 29.95 in 10.0 mi South 10.4 mph - N/A   Mostly Cloudy
1:54 PM 88.0 °F 92.9 °F 70.0 °F 55% 29.93 in 10.0 mi SSW 10.4 mph - N/A   Mostly Cloudy
2:54 PM 90.0 °F 96.4 °F 71.1 °F 54% 29.90 in 10.0 mi South 6.9 mph - N/A   Mostly Cloudy
3:54 PM 88.0 °F 92.9 °F 70.0 °F 55% 29.89 in 10.0 mi SSW 12.7 mph 21.9 mph N/A   Clear
4:54 PM 88.0 °F 93.8 °F 71.1 °F 57% 29.88 in 10.0 mi South 10.4 mph 17.3 mph N/A   Mostly Cloudy
5:54 PM 86.0 °F 90.7 °F 70.0 °F 59% 29.89 in 10.0 mi SSW 6.9 mph - N/A   Mostly Cloudy
6:54 PM 86.0 °F 90.7 °F 70.0 °F 59% 29.88 in 10.0 mi SSW 6.9 mph - N/A   Clear
7:54 PM 84.9 °F 88.2 °F 68.0 °F 57% 29.88 in 10.0 mi South 8.1 mph 17.3 mph N/A   Clear
8:54 PM 82.0 °F 84.9 °F 68.0 °F 62% 29.89 in 10.0 mi SSW 4.6 mph - N/A   Clear
9:54 PM 81.0 °F 84.1 °F 69.1 °F 67% 29.91 in 10.0 mi South 8.1 mph - N/A   Clear
10:54 PM 80.1 °F 82.9 °F 69.1 °F 69% 29.91 in 10.0 mi SSW 9.2 mph 17.3 mph N/A   Clear
11:54 PM 80.1 °F 82.9 °F 69.1 °F 69% 29.91 in 10.0 mi SSW 8.1 mph - N/A   Clear